George/Botha, South Africa

9:20 AM SAST on December 03, 2016 (GMT +0200)
George

Weather History for FAGG - October, 2012

Change the Weather History Date:

Tuesday, October 16, 2012

  Actual Average Record
Temperature  
Mean Temperature 49 °F -  
Max Temperature 64 °F 69 °F 75 °F (2005)
Min Temperature 34 °F 51 °F 34 °F (2012)
Degree Days  
Heating Degree Days 16    
Moisture  
Dew Point 56 °F    
Average Humidity 85    
Maximum Humidity 94    
Minimum Humidity 75    
Precipitation  
Precipitation 0.00 in - - ()
Sea Level Pressure  
Sea Level Pressure 30.12 in    
Wind  
Wind Speed 14 mph ()    
Max Wind Speed 25 mph    
Max Gust Speed 36 mph    
Visibility 6.1 miles    
Events      
Averages and records for this station are not official NWS values.
T = Trace of Precipitation, MM = Missing Value Source: Averaged Metar Reports

Daily Weather History Graph

Daily Weather History Graph

Search for Another Location

Airport or City:

Trip Planner

Search our weather history database for the weather conditions in past years. The results will help you decide how hot, cold, wet, or windy it might be!

Date:

Astronomy

Oct. 16, 2012 Rise Set
Actual Time 5:47 AM SAST 6:45 PM SAST
Civil Twilight 5:21 AM SAST 7:10 PM SAST
Nautical Twilight 4:51 AM SAST 7:41 PM SAST
Astronomical Twilight 4:20 AM SAST 8:12 PM SAST
Moon 6:09 AM SAST (10/16) 8:05 PM SAST (10/16)
Length of Visible Light 13h 49m
Length of Day
12h 57m
New Moon, 1% of the Moon is Illuminated
Oct 16
New Moon
Oct 22
First Quarter
Oct 29
Full
Nov 7
Last Quarter
Nov 14
New

Hourly Weather History & Observations

Time (SAST) Temp. Dew Point Humidity Pressure Visibility Wind Dir Wind Speed Gust Speed Precip Events Conditions
12:00 AM 59.0 °F 57.2 °F 94% 30.12 in - East 20.7 mph 35.7 mph N/A   Heavy Drizzle
1:00 AM 59.0 °F 55.4 °F 88% 30.12 in 6.2 mi East 12.7 mph - N/A   Mostly Cloudy
2:00 AM 58 °F 54 °F 83% 30.14 in 6 mi East 13.8 mph - -  
2:00 AM 59.0 °F 55.4 °F 88% 30.12 in 6.2 mi East 13.8 mph - N/A   Overcast
3:00 AM 59.0 °F 55.4 °F 88% 30.12 in 6.2 mi East 10.4 mph - N/A   Mostly Cloudy
4:00 AM 59.0 °F 55.4 °F 88% 30.12 in 6.2 mi East 10.4 mph - N/A   Mostly Cloudy
5:00 AM 59.0 °F 55.4 °F 88% 30.12 in 6.2 mi East 10.4 mph - N/A   Mostly Cloudy
6:00 AM 59.0 °F 55.4 °F 88% 30.15 in 6.2 mi East 9.2 mph - N/A   Mostly Cloudy
7:00 AM 59.0 °F 55.4 °F 88% 30.15 in 6.2 mi East 16.1 mph - N/A   Mostly Cloudy
8:00 AM 60 °F 56 °F 84% 30.19 in 6 mi East 13.8 mph - -   Mist
8:00 AM 60.8 °F 57.2 °F 88% 30.18 in 5.6 mi East 13.8 mph - N/A   Overcast
9:00 AM 60.8 °F 55.4 °F 82% 30.18 in 5.6 mi ESE 17.3 mph - N/A   Overcast
10:00 AM 60.8 °F 55.4 °F 82% 30.18 in 6.2 mi East 17.3 mph - N/A   Overcast
11:00 AM 60.8 °F 55.4 °F 82% 30.18 in 6.2 mi East 17.3 mph - N/A   Overcast
12:00 PM 62.6 °F 55.4 °F 77% 30.15 in 6.2 mi East 21.9 mph - N/A   Mostly Cloudy
1:00 PM 62.6 °F 55.4 °F 77% 30.15 in 6.2 mi East 19.6 mph - N/A   Mostly Cloudy
2:00 PM 64.4 °F 57.2 °F 77% 30.12 in 6.2 mi East 20.7 mph - N/A   Mostly Cloudy
3:00 PM 62.6 °F 55.4 °F 77% 30.09 in 6.2 mi ESE 25.3 mph - N/A   Mostly Cloudy
4:00 PM 62.6 °F 55.4 °F 77% 30.06 in 6.2 mi ESE 21.9 mph - N/A   Mostly Cloudy
5:00 PM 62 °F 56 °F 75% 30.09 in 12 mi ESE 23.0 mph - -   Overcast
5:00 PM 60.8 °F 57.2 °F 88% 30.06 in 6.2 mi ESE 23.0 mph - N/A   Mostly Cloudy
6:00 PM 60.8 °F 57.2 °F 88% 30.06 in 6.2 mi ESE 19.6 mph - N/A   Mostly Cloudy
7:00 PM 60.8 °F 57.2 °F 88% 30.06 in 6.2 mi East 16.1 mph - N/A   Overcast
8:00 PM 60 °F 57 °F 86% 30.10 in 4 mi East 15.0 mph - -   Mist
8:00 PM 60.8 °F 57.2 °F 88% 30.09 in 3.7 mi East 16.1 mph - N/A   Overcast
9:00 PM 60.8 °F 57.2 °F 88% 30.09 in 5.0 mi East 16.1 mph - N/A   Overcast
10:00 PM 60.8 °F 57.2 °F 88% 30.09 in 5.0 mi ESE 15.0 mph - N/A   Overcast
11:00 PM 60.8 °F 57.2 °F 88% 30.06 in 5.6 mi East 11.5 mph - N/A   Overcast